Keps
Threads by month
- ----- 2024 -----
- December
- November
- October
- September
- August
- July
- June
- May
- April
- March
- February
- January
- ----- 2023 -----
- December
- November
- October
- September
- August
- July
- June
- May
- April
- March
- February
- January
- ----- 2022 -----
- December
- November
- October
- September
- August
- July
- June
- May
- April
- March
- February
- January
- ----- 2021 -----
- December
- November
- October
- September
- August
- July
- June
- May
- April
- March
- February
- January
- ----- 2020 -----
- December
- November
- October
- September
- August
- July
- June
- May
- April
- March
- February
- January
- ----- 2019 -----
- December
- November
- October
- September
- August
- July
- June
- May
- April
- March
- February
- January
- ----- 2018 -----
- December
- November
- October
- September
- August
- July
- June
- May
- April
- March
- February
- January
- ----- 2017 -----
- December
- November
- October
- September
- August
- July
- June
- May
- April
- March
- February
- January
- ----- 2016 -----
- December
- November
- October
- September
- August
- July
- June
- May
- April
- March
- February
- January
- ----- 2015 -----
- December
- November
- October
- September
- August
- July
- June
- May
- April
- March
- February
- January
- ----- 2014 -----
- December
- November
- October
- September
- August
- July
- June
- May
- April
- March
- February
- January
- ----- 2013 -----
- December
- November
- October
- September
- August
- July
- June
- May
- April
- March
- February
- January
- ----- 2012 -----
- December
- November
- October
- September
- August
- July
- June
- May
- April
- March
- February
- January
- ----- 2011 -----
- December
- November
- October
- September
- August
- July
- June
- May
- April
- March
- February
- January
- ----- 2010 -----
- December
- November
- October
- September
- August
- July
- June
- May
- April
- March
- February
- January
- ----- 2009 -----
- December
- November
- October
- September
- August
- July
- June
- May
- April
- March
- February
- January
- ----- 2008 -----
- December
- November
- October
- September
- August
- July
- June
- May
- April
- March
- February
- January
- ----- 2007 -----
- December
- November
- October
- September
- August
- July
- June
- May
- April
- March
- February
- January
- ----- 2006 -----
- December
- November
- October
- September
December 2014
- 1 participants
- 8 discussions
SB KEPS @ AMSAT $ORB14360.N
2Line Orbital Elements 14360.AMSAT
HR AMSAT ORBITAL ELEMENTS FOR AMATEUR SATELLITES IN NASA FORMAT
FROM WA5QGD FORT WORTH,TX December 26, 2014
BID: ORB14360.N
DECODE 2-LINE ELSETS WITH THE FOLLOWING KEY:
1 AAAAAU 00 0 0 BBBBB.BBBBBBBB .CCCCCCCC 00000-0 00000-0 0 DDDZ
2 AAAAA EEE.EEEE FFF.FFFF GGGGGGG HHH.HHHH III.IIII JJ.JJJJJJJJKKKKKZ
KEY: A-CATALOGNUM B-EPOCHTIME C-DECAY D-ELSETNUM E-INCLINATION F-RAAN
G-ECCENTRICITY H-ARGPERIGEE I-MNANOM J-MNMOTION K-ORBITNUM Z-CHECKSUM
TO ALL RADIO AMATEURS BT
AO-07
1 07530U 74089B 14360.22636848 -.00000015 00000-0 17713-3 0 1526
2 07530 101.4982 335.9044 0011666 280.8755 149.5620 12.53610274835582
FO-29
1 24278U 96046B 14358.57439729 -.00000023 00000-0 11374-4 0 5436
2 24278 098.5203 346.1797 0350982 163.5197 310.7571 13.53039775906415
SO-33
1 25509U 98061B 14358.92328762 .00000423 00000-0 71704-4 0 9098
2 25509 031.4311 159.4807 0348561 345.7165 179.1893 14.29785776844468
RS-22
1 27939U 03042A 14360.44926787 .00001940 00000-0 36471-3 0 1620
2 27939 097.8216 165.2665 0012626 214.0339 146.0045 14.65663810600887
HO-68
1 36122U 09072B 14360.17790670 -.00000060 00000-0 -43517-4 0 2448
2 36122 100.2220 045.9654 0007858 157.1531 202.9934 13.16321913241698
AO-73
1 39444U 13066AE 14359.25118741 .00004758 00000-0 62646-3 0 3402
2 39444 097.7537 063.2831 0060286 343.5943 016.3317 14.79334964 57698
EO-79
1 40025U 14033R 14360.45024247 .00005692 00000-0 65233-3 0 5602
2 40025 097.9675 255.4048 0014237 033.9877 326.2201 14.86246615 28131
UO-11
1 14781U 84021B 14359.81121155 .00001832 00000-0 23721-3 0 6980
2 14781 097.8272 055.9681 0007213 276.7017 083.3375 14.82037370656343
AO-16
1 20439U 90005D 14360.05733976 .00000288 00000-0 12247-3 0 2020
2 20439 098.5263 293.9437 0009877 316.3726 104.4312 14.32462178301950
LO-19
1 20442U 90005G 14358.88735846 .00000275 00000-0 11703-3 0 1357
2 20442 098.4974 292.8748 0010739 307.0614 052.9587 14.32658604301982
AO-27
1 22825U 93061C 14359.87314094 .00000206 00000-0 97234-4 0 8510
2 22825 098.6874 305.1559 0009578 096.9955 332.1186 14.29810039108171
IO-26
1 22826U 93061D 14359.46455512 .00000256 00000-0 11604-3 0 6088
2 22826 098.6817 304.9389 0010075 091.1033 269.1304 14.30119383108251
GO-32
1 25397U 98043D 14359.84316050 .00000130 00000-0 75681-4 0 5293
2 25397 098.4972 310.9437 0002439 107.5456 305.1803 14.23501421855135
NO-44
1 26931U 01043C 14360.22106637 .00000175 00000-0 99439-4 0 7832
2 26931 067.0520 263.2282 0007139 269.2978 090.7305 14.30229368691065
SO-50
1 27607U 02058C 14359.82201332 .00002184 00000-0 33737-3 0 6134
2 27607 064.5578 007.9779 0069735 323.3527 036.2815 14.74289976645729
CO-55
1 27844U 03031E 14359.87029058 .00000424 00000-0 21271-3 0 1003
2 27844 098.6973 005.8790 0010732 084.2859 035.0326 14.21667770595815
CO-57
1 27848U 03031J 14359.97767363 .00000396 00000-0 20135-3 0 405
2 27848 098.7068 005.8005 0010682 090.1395 332.3591 14.21334054595744
AO-51
1 28375U 04025K 14360.06990532 .00000351 00000-0 11644-3 0 230
2 28375 098.2747 300.6771 0084018 132.0966 228.7407 14.41539679551556
CP3
1 31129U 07012N 14359.90072449 .00001607 00000-0 35739-3 0 9324
2 31129 097.9588 328.4729 0098537 133.2076 280.7728 14.55289656407919
CO-65
1 32785U 08021C 14360.19020442 .00003162 00000-0 36605-3 0 1494
2 32785 097.6739 044.9772 0012189 277.5459 153.5011 14.86144696360533
PRISM
1 33493U 09002B 14360.45280438 .00010274 00000-0 10292-2 0 6134
2 33493 098.2517 184.5969 0016700 173.6906 186.4477 14.91483318320817
SOHLA-1
1 33496U 09002E 14359.89232483 .00000771 00000-0 13369-3 0 5465
2 33496 098.1901 121.5870 0006003 005.9824 105.5245 14.71112056317692
TISAT-1
1 36799U 10035E 14360.24177554 .00005138 00000-0 57647-3 0 8057
2 36799 098.0160 093.8242 0014201 057.4656 355.0046 14.87170953241240
STUDSAT
1 36801U 10035G 14359.22274275 .00032467 00000-0 23619-2 0 9647
2 36801 098.0526 105.3379 0006485 012.3544 045.7362 15.03718114241757
ALMASAT-1
1 38078U 12006B 14360.04681765 .00039348 32748-5 76332-3 0 2450
2 38078 069.4627 312.3229 0534066 135.3498 229.1718 14.64521134149567
XATCOBEO
1 38082U 12006F 14243.34478676 .13583328 43697-5 37939-3 0 5637
2 38082 069.3815 097.0364 0033293 225.1799 135.4582 16.41261006136239
CUBEBUG-1
1 39153U 13018D 14360.21728190 .00003589 00000-0 49690-3 0 7442
2 39153 098.0293 080.0780 0018886 092.4032 267.9342 14.78533280 89919
ESTCUBE-1
1 39161U 13021C 14360.41630921 .00003315 00000-0 55256-3 0 7881
2 39161 098.0863 079.8303 0010533 140.1332 220.0660 14.70635134 87849
DUCHIFAT-1
1 40021U 14033M 14360.35380327 .00007599 00000-0 85836-3 0 5633
2 40021 097.9679 255.4154 0015037 033.1077 327.1070 14.86719582 28112
NANOSATCBR1
1 40024U 14033Q 14360.37198981 .00006874 00000-0 78207-3 0 5539
2 40024 097.9672 255.3517 0013990 035.1916 325.0176 14.86472322 28112
DTUSAT-2
1 40030U 14033W 14360.49799945 .00005528 00000-0 63994-3 0 5460
2 40030 097.9669 255.3213 0013327 028.4257 331.7654 14.85856921 28132
ANTELSAT
1 40034U 14033AA 14360.36158290 .00005022 00000-0 78492-3 0 5617
2 40034 097.9625 251.0795 0060660 314.1768 045.4435 14.72009331 27866
MET-2/21
1 22782U 93055A 14360.19382669 .00000074 00000-0 53061-4 0 2589
2 22782 082.5486 020.9500 0023634 087.6182 343.2000 13.83755018 76671
OKEAN-4
1 23317U 94066A 14360.30694635 .00002254 00000-0 25342-3 0 7430
2 23317 082.5382 247.7387 0020229 178.1246 335.1213 14.86158813 91630
NOAA-14
1 23455U 94089A 14360.18811772 .00000003 00000-0 24285-4 0 302
2 23455 098.7659 080.1084 0009256 206.8685 205.0515 14.14013310 31081
NOAA-15
1 25338U 98030A 14360.17420403 .00000256 00000-0 12698-3 0 4678
2 25338 098.7647 353.7854 0009730 314.3511 183.1241 14.25537968864194
RESURS
1 25394U 98043A 14359.85001219 .00000100 00000-0 61074-4 0 8391
2 25394 098.4416 316.4167 0002415 079.3947 332.7000 14.24430288855601
FENGYUN1
1 25730U 99025A 14359.84487615 .00004142 00000-0 22497-2 0 3279
2 25730 098.9303 319.9789 0020560 291.6316 126.6507 14.12762875804572
OKEAN-0
1 25860U 99039A 14359.89378196 .00001141 00000-0 17442-3 0 4504
2 25860 098.0707 322.9480 0001826 116.2748 302.7967 14.75694543830427
NOAA-16
1 26536U 00055A 14360.46838950 -.00000053 00000-0 -43033-5 0 9672
2 26536 098.9664 061.4255 0010264 006.4786 353.6517 14.13067197735265
NOAA-17
1 27453U 02032A 14360.54270655 .00000145 00000-0 79737-4 0 8587
2 27453 098.3259 350.2363 0010972 334.6569 025.4072 14.24837205650070
NOAA-18
1 28654U 05018A 14360.55825824 .00000094 00000-0 76405-4 0 3805
2 28654 099.1697 344.1339 0015239 085.6504 021.3563 14.12126288494713
NOAA-19
1 33591U 09005A 14360.54688284 .00000374 00000-0 22950-3 0 5119
2 33591 098.9692 305.2229 0013097 298.8458 113.4529 14.11841272303139
HUBBLE
1 20580U 90037B 14360.07223626 .00003767 00000-0 23701-3 0 1874
2 20580 028.4688 214.9356 0002852 174.7982 319.6411 15.06520453153676
ISS
1 25544U 98067A 14360.58758971 .00018339 00000-0 29780-3 0 6332
2 25544 051.6466 225.3451 0007282 176.5379 270.3998 15.52752396921183
CO-58
1 28895U 05043F 14359.76634866 .00001682 00000-0 34067-3 0 9532
2 28895 097.8220 191.6137 0018359 123.4909 236.8051 14.62367039488246
FALCON
1 30776U 07006E 14360.18136087 .00016093 00000-0 72576-3 0 354
2 30776 035.4294 002.3599 0004190 208.6420 198.7249 15.20220961429920
MAST
1 31126U 07012K 14359.87362144 .00001006 00000-0 22704-3 0 2369
2 31126 097.9385 331.0524 0092895 116.2334 300.0703 14.55689118408279
CAPE1
1 31130U 07012P 14359.84751183 .00001510 00000-0 33841-3 0 2416
2 31130 097.9603 327.9416 0099133 134.9876 225.9411 14.55001050407678
